Regional Weather Roundup
Issued by NWS

Home | Current Version | Previous Version | Graphics & Text | Print | Product List | Glossary On
Versions: 1 2 3 4 5 6 7 8 9 10 11 12 13 14 15 16 17 18 19 20 21 22 23 24 25 26 27 28 29 30 31 32 33 34 35 36 37 38 39 40 41 42 43 44 45 46 47 48 49 50
000
ASUS45 KABQ 031901
RWRNM
NEW MEXICO REGIONAL WEATHER ROUNDUP
NATIONAL WEATHER SERVICE ALBUQUERQUE NM
100 PM MDT THU SEP 03 2015

NOTE: "FAIR" MEANS FEW OR NO CLOUDS BELOW 12,000 FEET AGL WITH NO
       SIGNIFICANT WEATHER OR OBSTRUCTIONS TO VISION.

      THIS PRODUCT IS RELEASED AS TWO VERSIONS.  ONE VERSION NEAR
      THE TOP OF THE HOUR CONTAINING PRELIMINARY DATA FROM ALBUQUERQUE
      AND OTHER STATIONS.  A FINAL VERSION WITH ADDITIONAL DATA IS
      ISSUED ABOUT 10 MINUTES AFTER THE HOUR.

NMZ501-503-504-510>518-032000-
NORTHWEST PLATEAU/NORTHCENTRAL MOUNTAINS

CITY           SKY/WX    TMP DP  RH WIND       PRES   REMARKS
FARMINGTON     SUNNY     81  45  28 W8        30.11F
SANTA FE       MOSUNNY   78  44  29 MISG      30.17F
TAOS           CLOUDY    72  43  35 W12       30.24F
ANGEL FIRE     FAIR      63  46  54 W12G21    30.31S

$$
NMZ402-403-502-505>509-032000-
WESTCENTRAL MOUNTAINS/SOUTHWEST MOUNTAINS

CITY           SKY/WX    TMP DP  RH WIND       PRES   REMARKS
GALLUP         SUNNY     77  43  29 W15G21    30.20F
GRANTS         MOSUNNY   78  41  27 NW9       30.21F
SILVER CITY      N/A     79  54  41 W6        30.16F

$$
NMZ407-409-411-412-032000-
SOUTHERN DESERTS

CITY           SKY/WX    TMP DP  RH WIND       PRES   REMARKS
DEMING         CLOUDY    81  51  35 SW9       30.09F
HOLLOMAN AFB   PTSUNNY   86  47  25 CALM      30.04F
ALAMOGORDO     PTSUNNY   84  46  26 W5        30.07F
T OR C         MOSUNNY   83  53  35 VRB3      30.09F

$$
NMZ519>523-032000-
CENTRAL VALLEYS/CENTRAL HIGHLANDS

CITY           SKY/WX    TMP DP  RH WIND       PRES   REMARKS
ALBUQUERQUE    MOSUNNY   81  47  30 VRB3      30.13F
DOUBLE EAGLE   MOSUNNY   81  46  30 W10       30.17F
MORIARTY ARPT  FAIR      80  42  25 CALM      30.18F
CLINES CORNERS MOSUNNY   79  46  31 W15G26    30.21F
BELEN          FAIR      83  43  24 NW6       30.12F
SOCORRO        NOT AVBL

$$
NMZ524>526-539-540-032000-
SOUTHCENTRAL MOUNTAINS

CITY           SKY/WX    TMP DP  RH WIND       PRES   REMARKS
RUIDOSO        MOSUNNY   77  45  31 SW10G20   30.25F

$$
NMZ527>531-032000-
NORTHEAST HIGHLANDS/NORTHEAST PLAINS

CITY           SKY/WX    TMP DP  RH WIND       PRES   REMARKS
LAS VEGAS      MOSUNNY   80  46  30 SW16G30   30.16F
RATON          MOSUNNY   82  45  27 S12       30.07F
CLAYTON        PTSUNNY   85  51  31 SW15      30.01F

$$
NMZ532>537-032000-
EASTCENTRAL PLAINS

CITY           SKY/WX    TMP DP  RH WIND       PRES   REMARKS
TUCUMCARI      PTSUNNY   93  46  19 W15G21    29.98F
CANNON AFB     SUNNY     90  47  22 SW9       30.03F
CLOVIS AIRPORT SUNNY     91  48  22 SW12G18   30.04F

$$
NMZ028-029-538-032000-
SOUTHEAST PLAINS

CITY           SKY/WX    TMP DP  RH WIND       PRES   REMARKS
ROSWELL        SUNNY     94  51  23 E9        29.99F
ARTESIA        SUNNY     91  50  24 VRB3      30.00F
CARLSBAD       SUNNY     94  53  25 E10G17    29.97F
HOBBS          SUNNY     90  50  25 SE13G18   30.04F


$$



USA.gov is the U.S. government's official web portal to all federal, state and local government web resources and services.